User: anonymous   Login
Location: Columbia
(38.9520°N, 92.3340°W)
Time: 15:37:32
(UTC-05:00)
Language:

CZ-2C R/B - Orbit

View from above orbital plane
View from above orbital plane
View from above satellite
View from above satellite

Ground track
Ground track

The orbit data is extracted from the following two-line orbital elements,

1 28480U 04046B   14297.05266461  .00000551  00000-0  22572-3 0  4716
2 28480 098.1077 083.2358 0142474 200.2970 272.6197 14.25357363516440
Epoch (UTC): 24 October 2014 01:15:50
Eccentricity: 0.0142474
inclination: 98.1077°
perigee height: 705 km
apogee height: 909 km
right ascension of ascending node: 83.2358°
argument of perigee: 200.2970°
revolutions per day: 14.25357363
mean anomaly at epoch: 272.6197°
orbit number at epoch: 51644

The dashed part of the orbit path shows where the satellite is in the earth's shadow,  

DLR